Weather History for KJKJ - February, 2013

Change the Weather History Date:

Tuesday, February 19, 2013

  Actual Average (KFAR) Record (KFAR)
Temperature  
Mean Temperature -7 °F 16 °F  
Max Temperature 0 °F 25 °F 52 °F (1930)
Min Temperature -14 °F 7 °F -29 °F (1929)
Degree Days  
Heating Degree Days 72 49  
Month to date heating degree days 989  
Since 1 July heating degree days 6257  
Cooling Degree Days 0 0  
Month to date cooling degree days 0  
Year to date cooling degree days 0  
Moisture  
Dew Point -11 °F    
Average Humidity 85    
Maximum Humidity 92    
Minimum Humidity 77    
Precipitation  
Precipitation 0.00 in 0.02 in 0.32 in (1948)
Month to date precipitation 0.35  
Year to date precipitation 1.05  
Snow  
Snow 0.00 in 0.30 in 3.70 in (1986)
Month to date snowfall 4.4  
Since 1 July snowfall 35.4  
Snow Depth -    
Sea Level Pressure  
Sea Level Pressure 30.33 in    
Wind  
Wind Speed 22 mph (North)    
Max Wind Speed 32 mph    
Max Gust Speed 36 mph    
Visibility 4 miles    
Events Snow    
T = Trace of Precipitation, MM = Missing Value Source: NWS Daily Summary

Daily Weather History Graph

Daily Weather History Graph

Search for Another Location

Airport or City:

Trip Planner

Search our weather history database for the weather conditions in past years. The results will help you decide how hot, cold, wet, or windy it might be!

Date:

Astronomy

Feb. 19, 2013 Rise Set
Actual Time 7:23 AM CST 5:57 PM CST
Civil Twilight 6:52 AM CST 6:28 PM CST
Nautical Twilight 6:17 AM CST 7:04 PM CST
Astronomical Twilight 5:42 AM CST 7:39 PM CST
Moon 12:18 PM CST (2/19) 3:08 AM CST (2/19)
Length of Visible Light 11h 36m
Length of Day
10h 34m
Waxing Gibbous, 67% of the Moon is Illuminated
Feb 19
Waxing Gibbous
Feb 25
Full
Mar 4
Last Quarter
Mar 11
New
Mar 19
First Quarter

Hourly Weather History & Observations

Time (CST) Temp. Windchill Dew Point Humidity Pressure Visibility Wind Dir Wind Speed Gust Speed Precip Events Conditions
12:35 AM -0.4 °F -24.3 °F -4.0 °F 85% 30.12 in 1.0 mi NNW 24.2 mph 32.2 mph N/A   Overcast
12:55 AM -2.2 °F -28.4 °F -4.0 °F 92% 30.13 in 0.8 mi North 28.8 mph 32.2 mph N/A   Overcast
1:15 AM -2.2 °F -27.1 °F -5.8 °F 85% 30.14 in 0.8 mi North 25.3 mph 32.2 mph N/A   Overcast
1:34 AM -2.2 °F -29.6 °F -5.8 °F 85% 30.14 in 0.8 mi NNW 32.2 mph 35.7 mph N/A Snow Light Snow
1:55 AM -4.0 °F -30.9 °F -5.8 °F 92% 30.15 in 0.8 mi North 28.8 mph 35.7 mph N/A Snow Light Snow
2:15 AM -4.0 °F -30.0 °F -7.6 °F 85% 30.16 in 0.8 mi North 26.5 mph - N/A   Overcast
2:34 AM -5.8 °F -32.0 °F -7.6 °F 92% 30.17 in 0.5 mi North 25.3 mph 34.5 mph N/A Snow Light Snow
2:55 AM -5.8 °F -32.4 °F -9.4 °F 84% 30.17 in 1.0 mi NNW 26.5 mph 31.1 mph N/A   Overcast
3:15 AM -5.8 °F -33.7 °F -9.4 °F 84% 30.17 in 0.8 mi North 29.9 mph 33.4 mph N/A   Overcast
3:34 AM -5.8 °F -32.4 °F -9.4 °F 84% 30.18 in 0.8 mi NNW 26.5 mph 31.1 mph N/A   Overcast
3:55 AM -7.6 °F -35.3 °F -9.4 °F 92% 30.19 in 1.0 mi North 27.6 mph - N/A   Overcast
4:15 AM -7.6 °F -33.9 °F -9.4 °F 92% 30.19 in 1.5 mi NNW 24.2 mph - N/A   Overcast
4:34 AM -7.6 °F -35.3 °F -9.4 °F 92% 30.19 in 1.2 mi North 27.6 mph 32.2 mph N/A   Overcast
4:55 AM -7.6 °F -35.3 °F -11.2 °F 84% 30.20 in 0.8 mi North 27.6 mph 33.4 mph N/A Snow Light Snow
6:14 AM -9.4 °F -35.8 °F -11.2 °F 92% 30.23 in 1.0 mi North 23.0 mph - N/A Snow Light Snow
6:35 AM -9.4 °F -36.3 °F -11.2 °F 92% 30.24 in 1.0 mi North 24.2 mph 29.9 mph N/A Snow Light Snow
6:55 AM -9.4 °F -37.3 °F -11.2 °F 92% 30.25 in 1.2 mi NNW 26.5 mph - N/A   Overcast
7:14 AM -9.4 °F -36.3 °F -13.0 °F 84% 30.26 in 1.0 mi North 24.2 mph - N/A Snow Light Snow
7:35 AM -9.4 °F -35.8 °F -13.0 °F 84% 30.28 in 0.8 mi North 23.0 mph 26.5 mph N/A   Overcast
7:55 AM -9.4 °F -34.7 °F -13.0 °F 84% 30.29 in 0.5 mi North 20.7 mph - N/A Snow Light Snow
8:14 AM -9.4 °F -34.7 °F -13.0 °F 84% 30.29 in 0.8 mi North 20.7 mph - N/A   Overcast
8:35 AM -9.4 °F -33.5 °F -13.0 °F 84% 30.30 in 1.0 mi NNW 18.4 mph 25.3 mph N/A   Overcast
8:54 AM -9.4 °F -34.7 °F -13.0 °F 84% 30.31 in 0.8 mi North 20.7 mph - N/A   Overcast
9:15 AM -9.4 °F -33.5 °F -13.0 °F 84% 30.32 in 0.8 mi North 18.4 mph - N/A   Overcast
9:35 AM -9.4 °F -35.2 °F -13.0 °F 84% 30.32 in 0.8 mi North 21.9 mph 28.8 mph N/A   Overcast
9:54 AM -9.4 °F -36.8 °F -13.0 °F 84% 30.32 in 0.8 mi North 25.3 mph - N/A   Overcast
10:15 AM -9.4 °F -34.7 °F -13.0 °F 84% 30.34 in 0.8 mi North 20.7 mph - N/A   Overcast
10:35 AM -9.4 °F -36.3 °F -13.0 °F 84% 30.36 in 0.8 mi North 24.2 mph 29.9 mph N/A   Overcast
10:54 AM -7.6 °F -33.9 °F -11.2 °F 84% 30.36 in 1.0 mi North 24.2 mph - N/A   Overcast
11:15 AM -7.6 °F -31.1 °F -11.2 °F 84% 30.37 in 0.8 mi North 18.4 mph - N/A   Overcast
11:35 AM -7.6 °F -32.9 °F -11.2 °F 84% 30.37 in 0.8 mi NNW 21.9 mph - N/A   Overcast
11:54 AM -7.6 °F -32.9 °F -11.2 °F 84% 30.37 in 0.8 mi North 21.9 mph 26.5 mph N/A   Overcast
12:15 PM -7.6 °F -32.3 °F -11.2 °F 84% 30.37 in 1.0 mi North 20.7 mph 26.5 mph N/A   Haze
12:34 PM -7.6 °F -32.9 °F -11.2 °F 84% 30.37 in 1.5 mi North 21.9 mph - N/A   Haze
12:55 PM -7.6 °F -32.3 °F -11.2 °F 84% 30.37 in 1.8 mi North 20.7 mph - N/A   Overcast
1:14 PM -5.8 °F -28.8 °F -9.4 °F 84% 30.37 in 2.0 mi North 18.4 mph - N/A   Overcast
1:35 PM -5.8 °F -28.2 °F -11.2 °F 77% 30.37 in 4.0 mi North 17.3 mph - N/A   Haze
1:55 PM -5.8 °F -28.2 °F -11.2 °F 77% 30.37 in 5.0 mi North 17.3 mph - N/A   Haze
2:14 PM -5.8 °F -28.2 °F -11.2 °F 77% 30.37 in 7.0 mi North 17.3 mph - N/A   Mostly Cloudy
2:35 PM -5.8 °F -27.5 °F -9.4 °F 84% 30.37 in 7.0 mi North 16.1 mph - N/A   Mostly Cloudy
2:55 PM -5.8 °F -27.5 °F -9.4 °F 84% 30.38 in 4.0 mi North 16.1 mph - N/A   Overcast
3:14 PM -5.8 °F -28.2 °F -9.4 °F 84% 30.39 in 3.0 mi North 17.3 mph - N/A   Overcast
3:35 PM -5.8 °F -27.5 °F -9.4 °F 84% 30.40 in 3.0 mi North 16.1 mph - N/A   Overcast
3:55 PM -4.0 °F -25.2 °F -9.4 °F 78% 30.40 in 4.0 mi North 16.1 mph - N/A   Haze
4:14 PM -4.0 °F -24.5 °F -9.4 °F 78% 30.41 in 7.0 mi North 15.0 mph - N/A   Overcast
4:35 PM -5.8 °F -25.2 °F -9.4 °F 84% 30.41 in 10.0 mi North 12.7 mph - N/A   Scattered Clouds
4:54 PM -5.8 °F -25.2 °F -9.4 °F 84% 30.42 in 10.0 mi North 12.7 mph - N/A   Scattered Clouds
5:15 PM -5.8 °F -25.2 °F -9.4 °F 84% 30.42 in 10.0 mi North 12.7 mph - N/A   Scattered Clouds
5:35 PM -5.8 °F -24.4 °F -9.4 °F 84% 30.41 in 10.0 mi North 11.5 mph - N/A   Scattered Clouds
6:35 PM -7.6 °F -25.7 °F -11.2 °F 84% 30.42 in 10.0 mi NNE 10.4 mph - N/A   Clear
6:54 PM -7.6 °F -26.6 °F -11.2 °F 84% 30.43 in 10.0 mi North 11.5 mph - N/A   Clear
7:15 PM -9.4 °F -27.9 °F -13.0 °F 84% 30.44 in 10.0 mi North 10.4 mph - N/A   Clear
7:54 PM -11.2 °F -29.0 °F -14.8 °F 84% 30.44 in 10.0 mi North 9.2 mph - N/A   Mostly Cloudy
8:15 PM -9.4 °F -29.8 °F -14.8 °F 77% 30.43 in 10.0 mi North 12.7 mph - N/A   Scattered Clouds
8:35 PM -11.2 °F -29.0 °F -14.8 °F 84% 30.45 in 10.0 mi NNW 9.2 mph - N/A   Mostly Cloudy
8:54 PM -11.2 °F -30.1 °F -14.8 °F 84% 30.45 in 10.0 mi North 10.4 mph - N/A   Overcast
9:15 PM -11.2 °F -29.0 °F -14.8 °F 84% 30.45 in 10.0 mi North 9.2 mph - N/A   Mostly Cloudy
9:55 PM -13.0 °F -31.3 °F -16.6 °F 84% 30.47 in 10.0 mi North 9.2 mph - N/A   Scattered Clouds
10:15 PM -13.0 °F -31.3 °F -16.6 °F 84% 30.46 in 10.0 mi North 9.2 mph - N/A   Clear
10:34 PM -13.0 °F -31.3 °F -16.6 °F 84% 30.47 in 10.0 mi North 9.2 mph - N/A   Clear
10:55 PM -13.0 °F -28.6 °F -16.6 °F 84% 30.48 in 10.0 mi North 6.9 mph - N/A   Clear
11:15 PM -14.8 °F -29.1 °F -18.4 °F 84% 30.48 in 10.0 mi North 5.8 mph - N/A   Clear
11:35 PM -13.0 °F -27.0 °F -16.6 °F 84% 30.47 in 10.0 mi NNE 5.8 mph - N/A   Clear
11:55 PM -14.8 °F -30.8 °F -18.4 °F 84% 30.47 in 10.0 mi North 6.9 mph - N/A   Clear